TimeCDT,TemperatureF,Dew PointF,Humidity,Sea Level PressureIn,VisibilityMPH,Wind Direction,Wind SpeedMPH,Gust SpeedMPH,PrecipitationIn,Events,Conditions,WindDirDegrees,DateUTC
12:15 AM,52.9,47.7,82,30.13,10.0,Calm,Calm,-,N/A,,Overcast,0,2013-03-20 05:15:00
12:35 AM,52.5,48.4,86,30.13,10.0,East,3.5,-,N/A,,Overcast,100,2013-03-20 05:35:00
12:55 AM,52.7,48.2,85,30.11,10.0,ESE,11.5,-,N/A,Rain,Rain,110,2013-03-20 05:55:00
1:15 AM,52.5,47.3,82,30.12,10.0,East,6.9,-,N/A,,Overcast,100,2013-03-20 06:15:00
1:35 AM,52.7,47.1,81,30.15,10.0,North,5.8,-,N/A,,Overcast,10,2013-03-20 06:35:00
1:55 AM,52.2,47.8,85,30.14,7.0,East,5.8,-,0.01,Rain,Rain,80,2013-03-20 06:55:00
2:15 AM,51.6,47.8,87,30.15,10.0,NE,6.9,-,0.01,Rain,Light Rain,50,2013-03-20 07:15:00
2:35 AM,50.9,48.2,90,30.13,10.0,ESE,6.9,-,0.02,Rain,Light Rain,120,2013-03-20 07:35:00
2:55 AM,50.9,47.5,88,30.15,10.0,East,4.6,-,0.02,,Mostly Cloudy,80,2013-03-20 07:55:00
3:15 AM,50.9,46.9,86,30.12,10.0,ENE,8.1,-,N/A,,Mostly Cloudy,70,2013-03-20 08:15:00
3:35 AM,50.9,46.4,85,30.14,10.0,Calm,Calm,-,N/A,,Scattered Clouds,0,2013-03-20 08:35:00
3:55 AM,50.7,46.0,84,30.13,10.0,NNE,5.8,-,N/A,,Clear,30,2013-03-20 08:55:00
4:15 AM,50.2,45.5,84,30.14,10.0,NE,5.8,-,N/A,,Clear,40,2013-03-20 09:15:00
4:35 AM,49.6,45.5,86,30.15,10.0,NNE,4.6,-,N/A,,Clear,20,2013-03-20 09:35:00
4:55 AM,49.5,45.5,86,30.16,10.0,NNE,4.6,-,N/A,,Clear,20,2013-03-20 09:55:00
5:15 AM,49.1,45.5,87,30.15,10.0,Calm,Calm,-,N/A,,Clear,0,2013-03-20 10:15:00
5:35 AM,48.0,44.6,88,30.16,10.0,North,3.5,-,N/A,,Clear,10,2013-03-20 10:35:00
5:55 AM,48.0,45.0,89,30.17,10.0,Calm,Calm,-,N/A,,Clear,0,2013-03-20 10:55:00
6:15 AM,48.2,43.9,85,30.19,10.0,North,4.6,-,N/A,,Clear,10,2013-03-20 11:15:00
6:35 AM,48.2,42.6,81,30.20,10.0,North,4.6,-,N/A,,Clear,10,2013-03-20 11:35:00
6:55 AM,48.0,41.7,79,30.21,10.0,NNE,3.5,-,N/A,,Clear,20,2013-03-20 11:55:00
7:15 AM,47.5,41.4,79,30.23,10.0,NNE,5.8,-,N/A,,Clear,20,2013-03-20 12:15:00
7:35 AM,46.8,41.0,80,30.23,10.0,NNE,3.5,-,N/A,,Clear,30,2013-03-20 12:35:00
7:55 AM,47.3,40.3,77,30.23,10.0,NNE,5.8,-,N/A,,Clear,20,2013-03-20 12:55:00
8:15 AM,48.4,39.6,72,30.25,10.0,NNE,6.9,-,N/A,,Clear,20,2013-03-20 13:15:00
8:35 AM,48.7,39.4,70,30.25,10.0,NNE,6.9,-,N/A,,Clear,30,2013-03-20 13:35:00
8:55 AM,50.4,39.4,66,30.26,10.0,NNE,9.2,-,N/A,,Clear,20,2013-03-20 13:55:00
9:15 AM,52.0,38.7,60,30.26,10.0,NNE,9.2,-,N/A,,Clear,30,2013-03-20 14:15:00
9:35 AM,53.8,37.6,54,30.28,10.0,NE,6.9,-,N/A,,Clear,40,2013-03-20 14:35:00
9:55 AM,55.2,36.5,49,30.28,10.0,NE,9.2,-,N/A,,Clear,40,2013-03-20 14:55:00
10:15 AM,57.2,37.6,48,30.28,10.0,NE,6.9,-,N/A,,Clear,40,2013-03-20 15:15:00
10:35 AM,59.0,37.2,44,30.28,10.0,NE,8.1,-,N/A,,Clear,40,2013-03-20 15:35:00
10:55 AM,60.3,36.1,41,30.29,10.0,NNE,8.1,-,N/A,,Clear,20,2013-03-20 15:55:00
11:15 AM,61.7,37.4,41,30.28,10.0,North,10.4,-,N/A,,Clear,360,2013-03-20 16:15:00
11:35 AM,63.0,36.9,38,30.28,10.0,NNE,8.1,-,N/A,,Clear,20,2013-03-20 16:35:00
11:55 AM,64.0,36.9,37,30.27,10.0,NNE,10.4,-,N/A,,Clear,30,2013-03-20 16:55:00
12:15 PM,64.8,35.1,33,30.26,10.0,NE,12.7,18.4,N/A,,Clear,40,2013-03-20 17:15:00
12:35 PM,66.0,33.6,30,30.26,10.0,NE,11.5,17.3,N/A,,Clear,40,2013-03-20 17:35:00
12:55 PM,66.7,31.1,26,30.25,10.0,NNE,12.7,19.6,N/A,,Clear,30,2013-03-20 17:55:00
1:15 PM,67.3,30.7,26,30.25,10.0,North,15.0,19.6,N/A,,Clear,360,2013-03-20 18:15:00
1:35 PM,67.3,28.9,24,30.24,10.0,ENE,13.8,23.0,N/A,,Clear,60,2013-03-20 18:35:00
1:55 PM,67.5,30.4,25,30.24,10.0,North,9.2,24.2,N/A,,Clear,10,2013-03-20 18:55:00
2:15 PM,68.0,30.7,25,30.22,10.0,NE,10.4,16.1,N/A,,Clear,50,2013-03-20 19:15:00
2:35 PM,68.7,30.9,25,30.20,10.0,NNE,11.5,16.1,N/A,,Clear,30,2013-03-20 19:35:00
2:55 PM,69.1,30.6,24,30.19,10.0,North,6.9,-,N/A,,Clear,360,2013-03-20 19:55:00
3:15 PM,68.7,28.6,22,30.18,10.0,North,8.1,17.3,N/A,,Clear,360,2013-03-20 20:15:00
3:35 PM,68.9,29.1,23,30.17,10.0,ENE,9.2,-,N/A,,Clear,60,2013-03-20 20:35:00
3:55 PM,68.9,28.2,22,30.16,10.0,North,4.6,-,N/A,,Clear,10,2013-03-20 20:55:00
4:15 PM,69.4,28.6,22,30.16,10.0,NE,12.7,17.3,N/A,,Clear,40,2013-03-20 21:15:00
4:35 PM,69.8,29.3,22,30.15,10.0,NNE,8.1,16.1,N/A,,Clear,20,2013-03-20 21:35:00
4:55 PM,69.4,27.7,21,30.15,10.0,North,5.8,-,N/A,,Clear,350,2013-03-20 21:55:00
5:15 PM,68.7,25.9,20,30.14,10.0,Calm,Calm,-,N/A,,Clear,0,2013-03-20 22:15:00
5:35 PM,68.5,25.9,20,30.13,10.0,NNE,4.6,-,N/A,,Clear,20,2013-03-20 22:35:00
5:55 PM,68.7,26.8,21,30.13,10.0,North,8.1,-,N/A,,Clear,360,2013-03-20 22:55:00
6:15 PM,68.2,26.4,21,30.13,10.0,North,8.1,-,N/A,,Clear,10,2013-03-20 23:15:00
6:35 PM,67.1,26.4,22,30.12,10.0,NNE,8.1,-,N/A,,Clear,20,2013-03-20 23:35:00
6:55 PM,66.0,27.1,23,30.12,10.0,North,4.6,-,N/A,,Clear,10,2013-03-20 23:55:00
7:15 PM,63.9,27.7,26,30.11,10.0,NNE,3.5,-,N/A,,Clear,20,2013-03-21 00:15:00
7:35 PM,63.0,27.9,27,30.11,10.0,NNE,3.5,-,N/A,,Clear,20,2013-03-21 00:35:00
7:55 PM,61.7,29.1,29,30.11,10.0,NNE,4.6,-,N/A,,Clear,30,2013-03-21 00:55:00
8:15 PM,59.2,30.0,33,30.10,10.0,NNE,4.6,-,N/A,,Clear,30,2013-03-21 01:15:00
8:55 PM,58.8,29.8,33,30.10,10.0,NNE,4.6,-,N/A,,Clear,30,2013-03-21 01:55:00
9:15 PM,57.6,29.7,35,30.10,10.0,NNE,4.6,-,N/A,,Clear,30,2013-03-21 02:15:00
9:35 PM,57.6,29.8,35,30.10,10.0,NNE,4.6,-,N/A,,Clear,20,2013-03-21 02:35:00
9:55 PM,57.2,30.2,36,30.10,10.0,Calm,Calm,-,N/A,,Clear,0,2013-03-21 02:55:00
10:15 PM,57.2,30.2,36,30.10,10.0,NNE,3.5,-,N/A,,Clear,30,2013-03-21 03:15:00
10:35 PM,56.7,29.8,36,30.10,10.0,NNE,4.6,-,N/A,,Clear,20,2013-03-21 03:35:00
10:55 PM,56.3,30.0,37,30.09,10.0,NNE,4.6,-,N/A,,Clear,30,2013-03-21 03:55:00
11:15 PM,55.8,30.2,38,30.08,10.0,NE,5.8,-,N/A,,Clear,50,2013-03-21 04:15:00
11:35 PM,55.8,30.0,37,30.07,10.0,ENE,4.6,-,N/A,,Clear,60,2013-03-21 04:35:00
11:55 PM,55.4,30.2,38,30.06,7.0,ENE,5.8,-,N/A,,Clear,60,2013-03-21 04:55:00